Regional Weather Roundup
Issued by NWS Grand Forks, ND

Home | Current Version | Previous Version | Graphics & Text | Print | Product List | Glossary On
Versions: 1 2 3 4 5 6 7 8 9 10 11 12 13 14 15 16 17 18 19 20 21 22 23 24 25 26 27 28 29 30 31 32 33 34 35 36 37 38 39 40 41 42 43 44 45 46 47 48 49 50
335
ASUS43 KFGF 232231
RWRFGF
PRAIRIE TO PINES  WEATHER ROUNDUP
NATIONAL WEATHER SERVICE EASTERN NORTH DAKOTA/GRAND FORKS ND
400 PM CST FRI FEB 23 2018

 **SATELLITE DATA USED TO AUGMENT SKY COVER AT AUTOMATED STATIONS**
 *****  WEATHER ACROSS EASTERN NORTH DAKOTA  *****

CITY           SKY/WX    TMP DP  RH WIND       PRES   REMARKS
GRAND FORKS    FAIR      19  10  68 W9        30.20S WCI   8
GRAND FRKS AFB FAIR      18   8  64 NW13      30.19S WCI   4
GRAND FRKS NWS   N/A     17  10  75 W7        30.17F WCI   7
DEVILS LAKE    FAIR      14   8  77 W15       30.17S WCI  -1
FARGO          FAIR      15   7  70 W10       30.23F WCI   2
WAHPETON ARPT  FAIR      14   5  67 W10       30.26S WCI   1
$$

 ***** WEATHER ACROSS CENTRAL AND WESTERN NORTH DAKOTA  *****

CITY           SKY/WX    TMP DP  RH WIND       PRES   REMARKS
BISMARCK       FAIR      20   8  60 SW8       30.21F WCI  10
MINOT          FAIR      17   7  64 SW9       30.14S WCI   6
JAMESTOWN      FAIR      17   9  70 W12       30.19F WCI   4
MINOT AFB      FAIR      17   7  64 W8        30.12F WCI   7
GARRISON         N/A     13   5  70 SW7       30.14F WCI   3
WILLISTON      FAIR      12   2  64 S12       30.10F WCI  -2
DICKINSON      FAIR      17   7  64 S12       30.07F WCI   4
HETTINGER      FAIR      11   0  61 S6        30.12F WCI   1
$$

 *****  OTHER AIRPORT OBSERVATIONS IN OUR AREA  *****

CITY           SKY/WX    TMP DP  RH WIND       PRES   REMARKS
WALHALLA       NOT AVBL
GRAFTON AIRPOR NOT AVBL
VALLEY CITY AR FAIR      14   9  79 W9        30.21F WCI   2
CANDO          FAIR      16   9  73 W15       30.16F WCI   1
CAVALIER APRT  NOT AVBL
GWINNER          N/A     16   7  67 W7        30.24R WCI   6
SHEYENNE NWR     N/A     19   8  61 NW7       29.95S WCI  10
ROLLA          FAIR      14   7  73 E5        30.10S WCI   6
 ***** THE ABOVE OBSERVATIONS ARE NON NWS ARE NOT QUALITY
       CONTROLLED AND MAY MIS-REPORT RAIN FOR SNOW...
$$

  *****  WEATHER ACROSS NORTHERN MINNESOTA  *****

CITY           SKY/WX    TMP DP  RH WIND       PRES   REMARKS
FLAG ISLAND    FAIR      21  10  63 SE3       30.08R
WARROAD        FAIR      19   7  58 W9G18     30.12S WCI   9
ROSEAU         FAIR      18   9  68 W9G16     30.14R WCI   6
HALLOCK        FAIR      18  10  73 SW8       30.18R WCI   7
THF RVR FALLS  FAIR      14   6  70 SW12      30.19R WCI   0
BAUDETTE       FAIR      24   5  44 W9        30.09R WCI  14
WASKISH        FAIR      19  10  68 SW14      30.13R WCI   6
CROOKSTON      FAIR      16   9  73 W9        30.21S WCI   4
STEPHEN NDAWN    N/A     16   7  67 SW6         N/A  WCI   7
GREENBUSH NDAW   N/A     16   7  67 W10         N/A  WCI   3
$$
  *****  WEATHER ACROSS CENTRAL AND WEST MINNESOTA  *****

CITY           SKY/WX    TMP DP  RH WIND       PRES   REMARKS
FOSSTON        FAIR      18   5  57 W8        30.18S WCI   7
BEMIDJI        FAIR      20   8  57 W10       30.14R WCI   9
PARK RAPIDS    FAIR      23  12  62 W16       30.15R WCI  10
ELBOW LAKE     FAIR      16   9  72 NW7       30.25S WCI   6
WADENA         FAIR      21  12  68 W10       30.18R WCI  10
DETROIT LAKES  FAIR      18  10  73 NW7       30.20S WCI   8
MOORHEAD       FAIR      12   3  67 W3        30.25R
FERGUS FALLS   FAIR      12   7  79 NW7       30.24S WCI   2
MORRIS MN      FAIR      19  12  73 NW8       30.23S WCI   9
STAPLES        FAIR      23  16  74 W13       30.17S WCI  11
$$
  *****  WEATHER ELSEWHERE ACROSS MINNESOTA  *****

CITY           SKY/WX    TMP DP  RH WIND       PRES   REMARKS
DULUTH         CLOUDY    32  22  66 W12       30.08R WCI  23
INTRNTL FALLS  FAIR      28  16  60 W12       30.07R WCI  18
ELY            CLOUDY    27  21  80 W7        30.06R WCI  19
CLOQUET        CLOUDY    32  21  64 W7        30.10R
WHEATON        FAIR      18   9  68 W12       30.28S WCI   5
BRAINERD       FAIR      31  19  61 W8        30.15R WCI  23
HIBBING        CLOUDY    27  20  75 W7        30.09R WCI  19
ALEXANDRIA     FAIR      21  14  74 NW14      30.20S WCI   8
SAINT CLOUD    FAIR      29  22  75 SW14      30.19R WCI  18
MINNEAPOLIS    FAIR      31  22  69 W10       30.21R WCI  22
$$

  *****  WEATHER ACROSS SOUTH DAKOTA  *****

CITY           SKY/WX    TMP DP  RH WIND       PRES   REMARKS
SIOUX FALLS    CLOUDY    20  16  84 W6        30.28R WCI  12
BROOKINGS      CLOUDY    23  17  78 SW8       30.24R WCI  14
WATERTOWN      FAIR      20  15  81 W10       30.21S WCI   9
HURON          FAIR      18  11  74 W6        30.28R WCI  10
SISSETON         N/A     20  10  65 NW13      30.25R WCI   7
ABERDEEN       FAIR      20   9  62 N3        30.26S
MITCHELL       FAIR      19  13  77 W8        30.30R WCI   9
PIERRE         FAIR      13   6  74 NW5       30.23F WCI   5
MOBRIDGE       FAIR      16   6  65 SW3       30.19F
RAPID CITY     FAIR      18   9  68 SE15      30.09F WCI   4
$$

  *****  SOME WEATHER IN NEARBY STATES *****

CITY           SKY/WX    TMP DP  RH WIND       PRES   REMARKS
GLASGOW MT     FAIR       7  -1  70 SE12      29.99F WCI  -8
GREAT FALLS MT FAIR      21  10  62 SW24G37   29.84F WCI   4
CHEYENNE WY    CLOUDY    22  18  85 SE10      29.92F FOG     WCI  11
SCOTTSBLUFF NE FAIR      25  14  63 E13       30.05F WCI  14
OMAHA NE       FAIR      28  22  78 N13       30.30F WCI  17
DES MOINES IA  PTSUNNY   33  25  72 N13       30.28S WCI  24
DAVENPORT IA   FAIR      37  29  72 NW12      30.27R
CHICAGO IL     CLOUDY    38  33  82 W13       30.21R
EAU CLAIRE WI  CLOUDY    29  22  75 W8        30.18R WCI  21
LA CROSSE WI   PTSUNNY   32  25  75 NW12      30.23R WCI  23
$$

  *****  SOME NATIONAL WEATHER *****

CITY           SKY/WX    TMP DP  RH WIND       PRES   REMARKS
LA GUARDIA NY  DRZL/FOG  38  36  92 NE7       30.38F VSB 1/2
RALEIGH NC     FAIR      67  55  65 NE8       30.35F
ATLANTA GA     FAIR      77  59  53 S7        30.28F
NEW ORLEANS LA PTSUNNY   77  70  79 SE7       30.15F
OKLAHOMA CITY  LGT RAIN  37  36  96 NE8       30.12R FOG
ALBUQUERQUE NM FAIR      56  11  16 S18G30    29.85F
SALT LAKE CITY LGT SNOW  27  20  75 N14       30.09R WCI  16
LOS ANGELES CA FAIR      57  30  35 W20       30.18F
BOISE ID       FAIR      29  12  49 N13       30.25F WCI  19
SEATTLE WA     PTSUNNY   38  21  50 S12       30.32F
$$

*** WEATHER ACROSS MANITOBA...SASKATCHEWAN AND ONTARIO ***
                ***ONTARIO***

CITY           SKY/WX    TMP DP  RH WIND       PRES   REMARKS
GERALDTON      FLURRIES  25  21  86 NW6       29.95R WCI  18
THUNDER BAY    CLOUDY    30  23  74 W9        30.03R WCI  22
SIOUX LOOKOUT  MOSUNNY   23   0  36 NW6       30.01S WCI  16
TORONTO        CLOUDY    39  37  93 S3        30.02S
BIG TROUT LK   SUNNY      5 -11  47 NW9       30.03S WCI  -9
PICKLE LAKE    PTSUNNY   19   0  42 W5        29.98R WCI  13
DRYDEN         SUNNY     27   7  43 W12       30.00S WCI  16
KENORA         MOSUNNY   23   7  50 W5        30.04S WCI  17
$$
                *** MANITOBA***

CITY           SKY/WX    TMP DP  RH WIND       PRES   REMARKS
BRANDON        MOSUNNY   16   9  73 W10       30.11F WCI   3
DAUPHIN        SUNNY     18   9  68 W12       30.07F WCI   5
ISLAND LAKE    CLOUDY    12  -6  44 S5        30.03F WCI   4
PILOT MOUND      N/A     12   7  79 NW9         N/A  WCI   0
THE PAS        MOSUNNY   27   5  39 S13G18    29.89F WCI  16
THOMPSON       MOSUNNY   14  -2  48 S6        29.88F WCI   5
WINNIPEG       SUNNY     18   7  62 NW6       30.15F WCI   9
LYNN LAKE      SUNNY     23  10  58 S13G21    29.66F WCI  11
CHURCHILL      CLEAR     -9 -20  59 S12       29.92F WCI -29
GILLAM         PTSUNNY    1 -15  46 S6        29.97F WCI -10
$$
                ***SASKATCHEWAN***

CITY           SKY/WX    TMP DP  RH WIND       PRES   REMARKS
ESTEVAN        MOSUNNY   12   5  73 S9        30.06F WCI   0
KINDERSLEY     MOSUNNY   18   9  68 SW17      29.72F WCI   2
LLOYDMINSTER   CLOUDY    16   7  67 S18       29.62F WCI  -1
PRINCE ALBERT  MOSUNNY   18   9  68 SW21      29.85F WCI   1
REGINA         MOSUNNY   19  10  68 S12       29.97F WCI   7
YORKTON        SUNNY     16   7  67 S12       30.00F WCI   3
N. BATTLEFORD  SUNNY     18   5  57 S16       29.76F WCI   3
LA RONGE       PTSUNNY   28   5  37 SW14G26   29.68F WCI  17
SASKATOON      MOSUNNY   21  10  63 S20       29.83F WCI   6
SWIFT CURRENT  NOT AVBL
$$
NOTE: THESE ARE AUTOMATED STATIONS WITH LIMITED QUALITY CONTROL
      "FAIR" INDICATES FEW OR NO CLOUDS BELOW 12,000 FEET WITH NO
      SIGNIFICANT WEATHER AND/OR OBSTRUCTIONS TO VISIBILITY.
      SKY/WX - SKY CONDITION AND SIGNIFICANT WEATHER.
      TMP - AIR TEMPERATURE.    DP   - DEWPOINT TEMPERATURE.
      RH  - RELATIVE HUMIDITY.  PRES - PRESSURE.
      HX  - HEAT INDEX.         WCI  - WIND CHILL INDEX.
$




USA.gov is the U.S. government's official web portal to all federal, state and local government web resources and services.